עמוד ראשי
METAR-TAF:

METAR-TAF

שדות תעופה :

Northway, אלסקה, ארצות הברית

קו רוחב: 62-57-40N, קו אורך: 141-55-44W, גובה: 523מטר

תצפית מזג אוויר נוכחית

הדו"ח נערך לפני 57דקות, בשעה 19:53 UTC
רוח 8קשר מכיוון מערב עם משבים עד 17קשר
טמפרטורת 22 צלסיוס
לחות 38%
לחץ 1015 hPa
ראות: 16.1קילומטר
עננים בינוניים בגובה 8000רגל

METAR: PAOR 171953Z 26008G17KT 10SM BKN080 22/07 A2996 RMK AO2 SLP138 RA DSNT NE AND SE-S T02170072 PNO $

זמן: 12:50 (20:50 UTC)

תחזית

הדו"ח נערך לפני 1 שעות ו 59דקות, בשעה 18:51 UTC
תחזית בתוקף מ 17 ב 19 UTC עד 18 ב 18 UTC
רוח 3קשר מכיוון מערב/צפון-מערב
ראות: 10קילומטר
עננים פזורים בגובה 6000רגל , קומולונימבוס.
עננים פזורים בגובה 14000רגל
סופת רעמים במרחב
מ 18 ב 0600UTC
רוח 4קשר מכיוון מערב/צפון-מערב
ראות: 10קילומטר
עננים בינוניים בגובה 25000רגל

TAF: PAOR 171851Z 1719/1818 30003KT P6SM VCTS SCT060CB SCT140 FM180600 29004KT P6SM BKN250

תצפיות ותחזיות מזג אוויר לגבי יותר מ- 4,000 שדות תעופה ברחבי העולם. דוחות METAR ו- TAF.

התחנות הזמינות מסומנות בנקודות צהובות ואדומות על גבי המפה.

העבר את העכבר לנקודה הצבעונית על מנת לראות את שם התחנה.

לאחר מכן, לחץ כדי לראות את תוכן ואת תחזיות מזג האוויר.

כדי לשנות את המפה: לחץ על הכפתורים הירוקים עם הפלוס השחור כדי להתקרב; על הכפתור הירוק עם המקף כדי להתרחק; או בחיצים הירוקים למפות סמוכות.


METAR-TAF: